Voltar ao catálogo

COSMOS 839 DEB

AtivoUNKNOWN
NORAD 10444·DEBRIS·🇷🇺 Russia

Lançado Jul 8, 1976 de Plesetsk Cosmodrome

Loading…

Próximas Passagens (próximas 24 horas)

TLE

AtualizadoSource: Space-Track

Época: Sep 14, 2026, 08:35 UTC

1 10444U 76067V   26257.35772531 -.00000021  00000-0  86302-4 0  9991
2 10444  65.7923 250.4059 0744496 182.0247 177.7691 12.51637037290307

Acompanhe COSMOS 839 DEB em tempo real com AllMySat

Download on the App Store